Terug naar catalogus

STARLINK-31733

ActiefCommunicatieVLEO
NORAD 59486·PAYLOAD·🇺🇸 United States

Gelanceerd Apr 13, 2024 vanaf Cape Canaveral Space Force Station

Loading…

Volgende Passages (komende 24 uur)

TLE

VersSource: CelesTrak SupGP

Epoch: Sep 15, 2026, 02:28 UTC

1 59486C 24071C   26258.10326389  .00033752  00000+0  12215-2 0  2581
2 59486  43.0015 349.7275 0001509 273.6737 227.7834 15.27589050    10

Volg STARLINK-31733 in realtime met AllMySat

Download on the App Store